This demonstration page uses our WeatherBlox Daily Observations layout. Learn more.

Left ArrowRight Arrow

38.20091, -84.87328

Hourly Observations for July 27, 2020

Temp ( °F °C ) Dew Point ( °F °C ) Humidity (%) Winds ( mph kmh ) Pressure ( in mb ) Visibility ( mi km ) Precip ( " mm )
12:53 am 00:53 Clear 73 22.8 69 20.6 87 87 Calm 30.03 1017 10 16 0.00 0.00
1:53 am 01:53 Clear 72 22.2 69 20.6 91 91 SW 3 6 30.03 1017 10 16 0.00 0.00
2:53 am 02:53 Clear 72 22.2 69 20.6 91 91 SW 5 7 30.03 1017 10 16 0.00 0.00
3:53 am 03:53 Clear 72 22.2 69 20.6 91 91 SW 6 9 30.02 1017 10 16 0.00 0.00
4:53 am 04:53 Clear 72 22.2 68 20 87 87 WSW 3 6 30.02 1017 10 16 0.00 0.00
5:53 am 05:53 Clear 72 22.2 68 20 87 87 Calm 30.01 1016 10 16 0.00 0.00
6:53 am 06:53 Sunny 72 22.2 68 20 87 87 Calm 30.02 1017 10 16 0.00 0.00
7:53 am 07:53 Sunny 74 23.3 70 21.1 88 88 SSW 5 7 30.03 1017 10 16 0.00 0.00
8:53 am 08:53 Sunny 79 26.1 72 22.2 79 79 SW 7 11 30.03 1017 10 16 0.00 0.00
9:53 am 09:53 Sunny 83 28.3 73 22.8 72 72 SSW 10 17 30.03 1017 10 16 0.00 0.00
10:53 am 10:53 Sunny 86 30 74 23.3 67 67 SW 8 13 30.02 1017 10 16 0.00 0.00
11:42 am 11:42 Mostly Cloudy 88 31.1 73 22.8 61 61 SW 15 24 29.99 1016 10 16 0.00 0.00
11:53 am 11:53 Mostly Cloudy 88 31.1 73 22.8 61 61 WSW 12 19 30.01 1016 10 16 0.00 0.00
12:00 pm 12:00 Partly Cloudy 87 30.6 72 22.2 61 61 WSW 10 17 29.99 1016 10 16 0.00 0.00
12:53 pm 12:53 Mostly Sunny 89 31.7 71 21.7 55 55 WSW 15 24 30.00 1016 10 16 0.00 0.00
1:53 pm 13:53 Mostly Sunny 91 32.8 73 22.8 56 56 SW 16 26 29.97 1015 10 16 0.00 0.00
2:53 pm 14:53 Partly Cloudy 91 32.8 71 21.7 52 52 WSW 13 20 29.94 1014 10 16 0.00 0.00
3:53 pm 15:53 Mostly Sunny 92 33.3 71 21.7 51 51 SW 16 26 29.92 1013 10 16 0.00 0.00
4:53 pm 16:53 Partly Cloudy 93 33.9 71 21.7 49 49 W 12 19 29.92 1013 10 16 0.00 0.00
5:53 pm 17:53 Mostly Sunny 91 32.8 71 21.7 52 52 WSW 17 28 29.93 1013 10 16 0.00 0.00
6:53 pm 18:53 Mostly Sunny 83 28.3 66 18.9 57 57 WNW 10 17 29.94 1014 10 16 0.00 0.00
7:53 pm 19:53 Sunny 80 26.7 68 20 67 67 WNW 5 7 29.95 1014 10 16 0.00 0.00
8:53 pm 20:53 Sunny 79 26.1 69 20.6 72 72 Calm 29.95 1014 10 16 0.00 0.00
9:53 pm 21:53 Clear 78 25.6 69 20.6 74 74 WNW 3 6 29.94 1014 10 16 0.00 0.00
10:53 pm 22:53 Clear 75 23.9 69 20.6 82 82 Calm 29.95 1014 10 16 0.00 0.00
11:53 pm 23:53 Clear 74 23.3 69 20.6 85 85 SSW 5 7 29.93 1014 10 16 0.00 0.00

Powered by AerisWeather